Location: Anuling
(14.1239°N, 120.8922°E)
Time: 01:07:33
(UTC+00:00)

GPS 2-17 Rocket1 - Pass Details

Date: 11 April 2026
Orbit: 544 x 613 km, 20.3° (Epoch: 19 May)

Event Time Altitude Azimuth Distance (km) Brightness Sun altitude
Rises 12:22:20 0° 288° (WNW) 2,852 7.6 -32.1°
Reaches altitude 10° 12:24:49 10° 295° (WNW) 1,943 6.4 -32.6°
Enters shadow 12:26:49 23° 310° (NW) 1,279 5.2 -33.1°
